Voltar ao catálogo

CSSWE

AtivoCiênciaVLEO
NORAD 38761·PAYLOAD·🇺🇸 United States

Lançado Sep 13, 2012 de Vandenberg Space Force Base

Loading…

Próximas Passagens (próximas 24 horas)

TLE

AtualizadoSource: Space-Track

Época: Sep 14, 2026, 07:40 UTC

1 38761U 12048D   26257.31997768  .00024721  00000-0  44836-3 0  9996
2 38761  64.6620 150.5000 0029965 139.9972 220.3383 15.49067686130189

Acompanhe CSSWE em tempo real com AllMySat

Download on the App Store